Hourly Data Report for September 28, 2017

All times are specified in Local Standard Time (LST). Add 1 hour to adjust for Daylight Saving Time where and when it is observed.

PETAWAWA AWOS 2
ONTARIO

45°57'00.000" N
77°19'00.000" W
130.10 m
6106396
71625
YWA

Download Data

Hourly Data (September 2017)
Hourly Data Report for September 28, 2017
Temp Definition
°C
Dew Point Temp Definition
°C
Rel Hum Definition
%
Wind Dir Definition
10's deg

Wind Spd Definition
km/h
Visibility Definition
km
Stn Press Definition
kPa
Hmdx Definition


Wind Chill Definition


Weather Definition


TIME
00:00 13.6 5.6 58 32 22 14.5 99.66     LegendNANA
01:00 12.0 5.2 63 31 15 14.5 99.77     LegendNANA
02:00 10.7 5.1 68 30 9 14.5 99.80     LegendNANA
03:00 10.6 5.8 72 29 11 14.5 99.85     LegendNANA
04:00 10.7 5.8 72 31 11 14.5 99.92     LegendNANA
05:00 10.4 3.6 63 35 17 14.5 99.98     LegendNANA
06:00 10.0 3.1 62 32 9 14.5 100.02     LegendNANA
07:00 9.6 5.3 74 29 7 14.5 100.10     LegendNANA
08:00 10.1 5.4 73 32 11 14.5 100.10     LegendNANA
09:00 10.5 4.7 67 29 11 14.5 100.12     LegendNANA
10:00 11.6 4.7 62 31 17 14.5 100.14     LegendNANA
11:00 11.2 4.4 63 32 19 14.5 100.16     LegendNANA
12:00 12.5 4.9 60 30 15 14.5 100.16     LegendNANA
13:00 11.1 5.1 66 32 22 14.5 100.12     LegendNANA
14:00 12.0 3.2 55 32 15 14.5 100.08     LegendNANA
15:00 12.3 4.3 58 32 13 14.5 100.08     LegendNANA
16:00 11.6 5.5 66 28 11 14.5 100.12     LegendNANA
17:00 11.5 5.1 65 30 9 14.5 100.14     LegendNANA
18:00 10.7 4.6 66 31 7 14.5 100.17     LegendNANA
19:00 9.0 4.4 73 29 7 14.5 100.18     LegendNANA
20:00 6.6 4.1 84 27 6 14.5 100.20     LegendNANA
21:00 7.2 4.6 84 29 4 14.5 100.22     LegendNANA
22:00 5.2 4.1 93 18 4 14.5 100.22     LegendNANA
23:00 3.6 2.8 94   0 14.5 100.25     LegendNANA

Notes on Data Quality.

Legend

  • E = Estimated
  • M = Missing
  • NA = Not Available
  • ‡ = Partner data that is not subject to review by the National Climate Archives
Date modified: